Jamestown, NY

4:42 PM EST on December 09, 2019 (GMT -0500)
Chautauqua County-Jamestown

Weather History for KJHW - October, 2019

Change the Weather History Date:

Tuesday, October 15, 2019

  Actual Average Record
Temperature  
Mean Temperature 47 °F -  
Max Temperature 61 °F 60 °F 80 °F (1975)
Min Temperature 33 °F 34 °F 18 °F (1987)
Degree Days  
Heating Degree Days 18    
Moisture  
Dew Point 37 °F    
Average Humidity 86    
Maximum Humidity 100    
Minimum Humidity 41    
Precipitation  
Precipitation 0.00 in - - ()
Sea Level Pressure  
Sea Level Pressure 30.11 in    
Wind  
Wind Speed 5 mph (South)    
Max Wind Speed 12 mph    
Max Gust Speed 16 mph    
Visibility 5 miles    
Events Fog    
Averages and records for this station are not official NWS values.
T = Trace of Precipitation, MM = Missing Value Source: NWS Daily Summary

Daily Weather History Graph

Daily Weather History Graph

Search for Another Location

Airport or City:

Astronomy

Oct. 15, 2019 Rise Set
Actual Time 7:29 AM EDT 6:35 PM EDT
Civil Twilight 7:01 AM EDT 7:03 PM EDT
Nautical Twilight 6:28 AM EDT 7:36 PM EDT
Astronomical Twilight 5:56 AM EDT 8:08 PM EDT
Moon 7:53 PM EDT (10/15) 8:59 AM EDT (10/15)
Length of Visible Light 12h 02m
Length of Day
11h 06m
Full, 97% of the Moon is Illuminated
Oct 15
Full
Oct 21
Last Quarter
Oct 27
New
Nov 4
First Quarter
Nov 12
Full

Hourly Weather History & Observations

Time (EDT) Temp. Windchill Dew Point Humidity Pressure Visibility Wind Dir Wind Speed Gust Speed Precip Events Conditions
12:56 AM 41.0 °F 37.1 °F 39.0 °F 93% 30.16 in 10.0 mi WSW 5.8 mph - N/A   Overcast
1:56 AM 41.0 °F 37.1 °F 39.0 °F 93% 30.16 in 10.0 mi WSW 5.8 mph - N/A   Overcast
2:56 AM 39.9 °F 37.8 °F 39.0 °F 97% 30.17 in 10.0 mi SW 3.5 mph - N/A   Overcast
3:44 AM 39.2 °F 37.0 °F 37.4 °F 93% 30.12 in 1.5 mi SSW 3.5 mph - N/A   Mostly Cloudy
3:52 AM 37.4 °F 34.9 °F 37.4 °F 100% 30.12 in 1.0 mi SSW 3.5 mph - N/A   Mostly Cloudy
3:56 AM 37.9 °F 35.5 °F 37.9 °F 100% 30.17 in 1.0 mi SSW 3.5 mph - N/A   Scattered Clouds
4:03 AM 37.4 °F 34.9 °F 37.4 °F 100% 30.12 in 1.2 mi South 3.5 mph - N/A   Mostly Cloudy
4:14 AM 37.4 °F 34.9 °F 37.4 °F 100% 30.12 in 2.0 mi South 3.5 mph - N/A   Scattered Clouds
4:22 AM 37.4 °F 34.9 °F 37.4 °F 100% 30.12 in 1.5 mi SSW 3.5 mph - N/A   Partly Cloudy
4:36 AM 37.4 °F 34.9 °F 37.4 °F 100% 30.13 in 3.0 mi SSW 3.5 mph - N/A   Partly Cloudy
4:38 AM 37.4 °F 34.9 °F 37.4 °F 100% 30.13 in 1.8 mi SSW 3.5 mph - N/A   Partly Cloudy
4:43 AM 37.4 °F 34.9 °F 37.4 °F 100% 30.13 in 0.8 mi SSW 3.5 mph - N/A   Mist
4:49 AM 37.4 °F 34.9 °F 37.4 °F 100% 30.13 in 0.5 mi SSW 3.5 mph - N/A Fog Fog
4:56 AM 36.0 °F 33.3 °F 36.0 °F 100% 30.18 in 0.5 mi South 3.5 mph - N/A Fog Fog
5:18 AM 35.6 °F 32.8 °F 35.6 °F 100% 30.13 in 0.2 mi South 3.5 mph - N/A Fog Fog
5:26 AM 35.6 °F 31.7 °F 35.6 °F 100% 30.13 in 0.8 mi South 4.6 mph - N/A   Mist
5:31 AM 35.6 °F 32.8 °F 35.6 °F 100% 30.13 in 1.2 mi South 3.5 mph - N/A   Partly Cloudy
5:39 AM 35.6 °F 31.7 °F 35.6 °F 100% 30.13 in 0.8 mi South 4.6 mph - N/A   Mist
5:49 AM 35.6 °F 32.8 °F 35.6 °F 100% 30.13 in 0.5 mi South 3.5 mph - N/A Fog Fog
5:56 AM 36.0 °F 32.1 °F 35.1 °F 97% 30.18 in 0.5 mi South 4.6 mph - N/A Fog Fog
6:16 AM 35.6 °F 31.7 °F 35.6 °F 100% 30.13 in 0.2 mi South 4.6 mph - N/A Fog Fog
6:27 AM 35.6 °F 31.7 °F 35.6 °F 100% 30.14 in 0.5 mi South 4.6 mph - N/A Fog Fog
6:37 AM 35.6 °F 31.7 °F 33.8 °F 93% 30.14 in 0.5 mi South 4.6 mph - N/A Fog Fog
6:40 AM 35.6 °F 31.7 °F 33.8 °F 93% 30.14 in 1.0 mi South 4.6 mph - N/A   Mist
6:43 AM 35.6 °F 31.7 °F 33.8 °F 93% 30.14 in 2.5 mi South 4.6 mph - N/A   Partly Cloudy
6:52 AM 35.6 °F 31.7 °F 35.6 °F 100% 30.14 in 1.8 mi South 4.6 mph - N/A   Clear
6:56 AM 35.1 °F 31.0 °F 34.0 °F 96% 30.19 in 3.0 mi South 4.6 mph - N/A   Clear
7:05 AM 35.6 °F 31.7 °F 33.8 °F 93% 30.14 in 2.0 mi South 4.6 mph - N/A   Clear
7:27 AM 33.8 °F 28.6 °F 33.8 °F 100% 30.15 in 2.0 mi South 5.8 mph - N/A   Clear
7:34 AM 35.6 °F 31.7 °F 33.8 °F 93% 30.15 in 10.0 mi South 4.6 mph - N/A   Clear
7:56 AM 34.0 °F 29.8 °F 34.0 °F 100% 30.21 in 3.0 mi South 4.6 mph - N/A   Clear
8:56 AM 36.0 °F 32.1 °F 36.0 °F 100% 30.21 in 10.0 mi South 4.6 mph - N/A   Clear
9:56 AM 41.0 °F 37.1 °F 37.9 °F 89% 30.20 in 10.0 mi Variable 5.8 mph - N/A   Clear
10:56 AM 46.0 °F 41.9 °F 39.0 °F 76% 30.18 in 10.0 mi SSE 8.1 mph - N/A   Clear
11:56 AM 51.1 °F - 39.9 °F 66% 30.14 in 10.0 mi South 10.4 mph - N/A   Clear
12:56 PM 54.0 °F - 41.0 °F 62% 30.11 in 10.0 mi SSE 8.1 mph 16.1 mph N/A   Clear
1:56 PM 57.0 °F - 39.0 °F 51% 30.07 in 10.0 mi South 8.1 mph - N/A   Clear
2:56 PM 59.0 °F - 37.9 °F 46% 30.03 in 10.0 mi SE 11.5 mph - N/A   Clear
3:56 PM 61.0 °F - 37.0 °F 41% 30.00 in 10.0 mi South 8.1 mph - N/A   Clear
4:56 PM 61.0 °F - 39.0 °F 44% 29.98 in 10.0 mi South 9.2 mph - N/A   Clear
5:56 PM 59.0 °F - 37.9 °F 46% 29.98 in 10.0 mi South 8.1 mph - N/A   Clear
6:56 PM 55.9 °F - 39.0 °F 53% 29.97 in 10.0 mi South 8.1 mph - N/A   Clear
7:56 PM 53.1 °F - 39.0 °F 59% 29.96 in 10.0 mi South 5.8 mph - N/A   Clear
8:56 PM 53.1 °F - 39.0 °F 59% 29.95 in 10.0 mi SSE 6.9 mph - N/A   Clear
9:56 PM 51.1 °F - 39.9 °F 66% 29.93 in 10.0 mi South 5.8 mph - N/A   Clear
10:56 PM 50.0 °F - 39.9 °F 68% 29.91 in 10.0 mi South 5.8 mph - N/A   Partly Cloudy
11:56 PM 51.1 °F - 41.0 °F 68% 29.87 in 10.0 mi South 8.1 mph - N/A   Clear